Home   Weather   Wilhelmshaven   Past weeks

Flag for Germany Past Weather in Wilhelmshaven, Lower Saxony, Germany — Yesterday and Last 2 Weeks

Now
68 °F

Partly sunny.


Feels Like: 68 °F
Forecast: 59 / 66 °F
Wind: 21 mph from West

Location: Wittmundhaven

Current Time: Sep 28, 2016 at 1:58:01 PM

Latest Report: Sep 28, 2016 at 1:20 PM


Visibility: N/A

Pressure: 30.09 "Hg

Humidity: 60%

Dew Point: 54 °F

Location of WilhelmshavenLocation

Past Weather in Wilhelmshaven — Graph

°F

Wilhelmshaven Temperature Yesterday

Maximum temperature yesterday: 70 °F (at 2:20 PM)
Minimum temperature yesterday: 45 °F (at 7:20 AM)
Average temperature yesterday: 57 °F

High & Low Weather Summary for the Past Weeks

 TemperatureHumidityPressure
High88 °F (Sep 13, 4:20 PM)100% (Sep 17, 2:20 AM)30.30 "Hg (Sep 17, 2:20 AM)
Low45 °F (Sep 27, 7:20 AM)43% (Sep 13, 4:20 PM)29.86 "Hg (Sep 16, 12:20 AM)
Average62 °F75%30.09 "Hg
* Reported Sep 13 12:20 PM — Sep 28 12:20 PM, Wilhelmshaven, Weather by CustomWeather, © 2016

Note: Actual official high and low records may vary slightly from our data, if they occured in-between our weather recording intervals... More about our weather records

Advertising

Wilhelmshaven Weather History for the Previous 24 Hours

Scroll right to see more
 ConditionsComfort  
Time TempWeatherWind HumidityBarometerVisibility
12:20 PM
Wed, Sep 28
66 °FScattered clouds.20 mph68%30.09 "HgN/A
11:20 AM66 °FPartly sunny.15 mph68%30.09 "HgN/A
10:20 AM66 °FScattered clouds.20 mph73%30.09 "HgN/A
9:45 AM64 °FScattered clouds.18 mph78%30.09 "HgN/A
9:20 AM64 °FBroken clouds.16 mph83%30.09 "HgN/A
9:02 AM63 °FBroken clouds.14 mph88%30.09 "HgN/A
8:20 AM63 °FPartly sunny.13 mph88%30.09 "HgN/A
7:20 AM61 °FPassing clouds.12 mph88%30.09 "HgN/A
6:20 AM61 °FPassing clouds.15 mph83%30.09 "HgN/A
5:20 AM61 °FLight rain. Partly cloudy.16 mph83%30.09 "HgN/A
4:20 AM61 °FPassing clouds.12 mph68%30.09 "HgN/A
3:20 AM61 °FPartly cloudy.13 mph63%30.09 "HgN/A
2:20 AM63 °FPartly cloudy.14 mph56%30.15 "HgN/A
1:20 AM63 °FPassing clouds.12 mph59%30.15 "HgN/A
12:20 AM61 °FPassing clouds.12 mph63%30.18 "HgN/A
11:20 PM
Tue, Sep 27
61 °FPartly cloudy.9 mph63%30.18 "HgN/A
10:20 PM59 °FPassing clouds.8 mph68%30.21 "HgN/A
9:20 PM59 °FPartly cloudy.6 mph68%30.21 "HgN/A
8:20 PM59 °FPartly cloudy.6 mph68%30.24 "HgN/A
7:20 PM63 °FPartly cloudy.6 mph59%30.24 "HgN/A
6:20 PM66 °FScattered clouds.7 mph49%30.24 "HgN/A
5:20 PM70 °FPartly sunny.10 mph43%30.24 "HgN/A
4:20 PM70 °FPartly sunny.10 mph46%30.24 "HgN/A
3:20 PM70 °FPartly sunny.10 mph46%30.24 "HgN/A
2:20 PM70 °FScattered clouds.10 mph46%30.27 "HgN/A
1:20 PM68 °FPassing clouds.10 mph56%30.27 "HgN/A
Weather by CustomWeather, © 2016

See weather overviewHow to use our weather pages